Regional Weather Roundup
Issued by NWS

Home | Current Version | Previous Version | Graphics & Text | Print | Product List | Glossary On
Versions: 1 2 3 4 5 6 7 8 9 10 11 12 13 14 15 16 17 18 19 20 21 22 23 24 25 26 27 28 29 30 31 32 33 34 35 36 37 38 39 40 41 42 43 44 45 46 47 48 49 50
111
ASUS45 KPSR 281710
RWRAZ

ARIZONA HOURLY REGIONAL WEATHER ROUNDUP
NATIONAL WEATHER SERVICE PHOENIX AZ
1000 AM MST TUE MAR 28 2017

NOTE: FAIR INDICATES FEW OR NO CLOUDS BELOW 12,000 FEET WITH NO
SIGNIFICANT WEATHER AND/OR OBSTRUCTIONS TO VISIBILITY.

AZZ001>003-036-281800-
NORTHWEST ARIZONA

CITY           SKY/WX    TMP DP  RH WIND       PRES   REMARKS
BULLHEAD CITY  SUNNY     66  25  20 N24G36    30.00R
KINGMAN        SUNNY     55  13  18 N21G26    30.02R
$$

AZZ004>008-015-016-018-281800-
NORTH CENTRAL ARIZONA

CITY           SKY/WX    TMP DP  RH WIND       PRES   REMARKS
GRAND CANYON   PTSUNNY   44  26  49 NE10G18   29.99R
WILLIAMS       SUNNY     43  30  61 N14G20    29.97R
PRESCOTT       MOSUNNY   49  32  52 N17       29.95R
FLAGSTAFF      CLOUDY    40  28  62 W7        29.94R
PAYSON         PTSUNNY   52  34  50 N8        29.94S
PAGE           CLOUDY    54  27  35 N8        29.94R
$$

AZZ009>014-017-281800-
NORTHEAST ARIZONA

CITY           SKY/WX    TMP DP  RH WIND       PRES   REMARKS
WINSLOW        CLOUDY    48  39  71 NW15      29.93R
SAINT JOHNS    CLOUDY    38  36  92 W13       29.90R WCI  30
WINDOW ROCK    PTSUNNY   46  30  53 N9        29.87S
SHOW LOW       LGT RAIN  32  32 100 NW6       29.94R WCI  26
$$

AZZ023-281800-
GREATER PHOENIX AREA

CITY           SKY/WX    TMP DP  RH WIND       PRES   REMARKS
PHOENIX        MOSUNNY   66  35  31 W9        29.86R
BUCKEYE        SUNNY     66  34  30 N16G25    29.89R
GLENDALE       MOSUNNY   66  36  32 W6        29.89R
LUKE AFB       SUNNY     68  35  29 N3        29.87R
DEER VALLEY    SUNNY     67  35  30 N7G17     29.86R
SCOTTSDALE     SUNNY     64  34  32 CALM      29.88S
MESA-FALCON    SUNNY    N/A N/A N/A SW12      29.85R
CHANDLER       SUNNY     64  36  34 W9        29.88R
$$

AZZ027-028-281800-
SOUTHWEST MARICOPA COUNTY AND PINAL COUNTY

CITY           SKY/WX    TMP DP  RH WIND       PRES   REMARKS
CASA GRANDE    NOT AVBL
GILA BEND      SUNNY     68  34  27 NW13      29.90R
$$

AZZ503-504-507>509-281800-
SOUTHEAST ARIZONA

CITY           SKY/WX    TMP DP  RH WIND       PRES   REMARKS
TUCSON         SUNNY     61  38  42 W9        29.93R
DAVIS-MONTHAN  SUNNY     59  40  50 VRB5      29.91R
RYAN FIELD     SUNNY     63  37  39 W13G21    29.93R
NOGALES        SUNNY     59  30  33 NW8       29.93R
SIERRA VISTA   PTSUNNY   54  29  38 W13       29.94R
DOUGLAS        SUNNY     53  41  63 CALM      29.93S
SAFFORD        MOSUNNY   61  33  35 W13G23    29.85R
$$

AZZ020-021-025-026-031-281800-
SOUTHWEST ARIZONA

CITY           SKY/WX    TMP DP  RH WIND       PRES   REMARKS
YUMA           SUNNY     72  25  17 N13G26    29.96S
$$

CAZ031-033-041-043-047-048-061-281800-
SOUTHERN CALIFORNIA

CITY           SKY/WX    TMP DP  RH WIND       PRES   REMARKS
DOWNTOWN L.A.  SUNNY     67  44  43 VRB3      30.03S
L.A. AIRPORT   MOSUNNY   66  46  48 SE7       30.03F
SAN DIEGO      MOSUNNY   63  51  65 W3        30.05S
BURBANK        SUNNY     67  32  27 VRB6      30.03S
ONTARIO        MOSUNNY   65  34  31 W7        30.04S
RIVERSIDE      SUNNY     68  26  20 N14G24    30.05R
PALM SPRINGS   SUNNY     73  23  15 SE10      30.04R
EL CENTRO NAS  SUNNY     73  20  13 N24       30.01R
IMPERIAL       SUNNY     72  30  21 NW21      29.99R
BLYTHE         SUNNY     71  24  17 N22G30    29.97R
NEEDLES        SUNNY     70  24  17 NE28G35   29.99S
$$

NVZ020-UTZ003-281800-
SOUTHERN NEVADA-UTAH

CITY           SKY/WX    TMP DP  RH WIND       PRES   REMARKS
LAS VEGAS      MOSUNNY   61  19  19 NW21G29   30.08R
SALT LAKE CITY MOSUNNY   46  34  62 NW13      30.14S
$$

NMZ009-TXZ055-281800-
NEW MEXICO-WEST TEXAS

CITY           SKY/WX    TMP DP  RH WIND       PRES   REMARKS
ALBUQUERQUE    CLOUDY    50  36  58 N3        29.82S
EL PASO        MOSUNNY   65  23  20 SW15G29   29.81S
$$


........................KEY........................
SKY/WX - SKY CONDITION/WEATHER
TMP    - TEMPERATURE IN FAHRENHEIT
DP     - DEW POINT IN FAHRENHEIT
RH     - RELATIVE HUMIDITY IN PERCENT
WIND   - DIRECTION AND SPEED IN MILES PER HOUR (MPH)
VRB    - VARIABLE WIND DIRECTION
PRES   - MEAN SEA LEVEL PRESSURE IN INCHES OF MERCURY
         F - FALLING PRESSURE   R - RISING PRESSURE
         S - STEADY PRESSURE
VSB    - VISIBILITY IN MILES
HX     - HEAT INDEX IN FAHRENHEIT
WCI    - WIND CHILL INDEX IN FAHRENHEIT
TC     - TEMPERATURE IN CELSIUS WHICH IS ALSO KNOWN AS
         TEMPERATURE IN CENTIGRADE
AFB    - AIR FORCE BASE
         LUKE AFB IS LUKE AIR FORCE BASE
         DAVIS-MONTHAN IS DAVIS-MONTHAN AIR FORCE BASE
NAS    - NAVAL AIR STATION
         EL CENTRO NAS IS EL CENTRO NAVAL AIR STATION
N/A    - NOT AVAILABLE





USA.gov is the U.S. government's official web portal to all federal, state and local government web resources and services.